Date,TemperatureHighF,TemperatureAvgF,TemperatureLowF,DewpointHighF,DewpointAvgF,DewpointLowF,HumidityHigh,HumidityAvg,HumidityLow,PressureMaxIn,PressureMinIn,WindSpeedMaxMPH,WindSpeedAvgMPH,GustSpeedMaxMPH,PrecipitationSumIn
2013-2-9,56,42,31,42,32,28,89,69,41,30.34,30.16,2,0,7,0.00
2013-2-10,59,50,46,51,10,-47,100,48,1,30.18,29.92,12,1,16,0.55
2013-2-11,59,52,44,59,9,-45,100,44,1,30.19,29.97,10,1,10,0.00
2013-2-12,50,44,41,41,18,-53,90,56,1,30.17,29.79,2,0,3,0.31
2013-2-13,45,41,39,42,5,-53,93,54,1,30.05,29.73,10,2,13,0.01
2013-2-14,58,45,32,38,35,30,100,72,34,30.11,30.03,6,1,11,0.00
2013-2-15,55,43,35,40,34,26,98,71,49,30.14,30.07,14,2,14,0.00
2013-2-16,39,34,28,28,18,12,68,54,35,30.24,30.12,16,3,16,0.00
2013-2-17,48,35,20,21,16,10,81,49,27,30.32,30.20,14,1,14,0.00
2013-2-18,60,48,36,44,30,19,99,51,34,30.26,29.92,40,6,40,0.40
2013-2-19,51,44,32,48,33,17,100,68,28,30.25,29.93,20,3,20,0.13
2013-2-20,36,33,28,24,20,14,82,59,42,30.31,30.19,12,1,12,0.01
2013-2-21,55,42,30,48,30,18,100,68,29,30.20,29.84,12,1,12,0.92
2013-2-22,56,48,45,50,47,45,100,96,79,30.08,29.92,10,0,10,0.08
2013-2-23,51,46,42,45,42,33,100,89,68,30.03,29.90,6,0,6,0.01
2013-2-24,56,44,34,35,31,29,85,63,38,30.11,29.96,10,0,10,0.00
2013-2-25,60,48,39,45,37,26,93,65,44,29.97,29.54,24,2,24,0.02
2013-2-26,48,44,40,47,39,32,100,82,62,29.82,29.46,26,6,26,0.38
2013-2-27,54,47,40,37,34,31,78,62,46,29.95,29.82,20,4,20,0.00
2013-2-28,40,37,36,34,28,25,79,67,63,30.08,29.91,14,2,14,0.00
2013-3-1,38,35,32,32,29,26,99,80,69,30.09,30.03,14,1,14,0.02
2013-3-2,35,32,30,31,28,24,100,84,73,30.16,30.05,16,4,16,0.08
2013-3-3,42,33,26,25,20,14,83,62,32,30.19,30.10,14,2,14,0.00
2013-3-4,61,47,30,44,28,21,82,51,28,30.15,29.89,22,2,22,0.00
2013-3-5,58,48,34,56,43,21,100,82,57,30.08,29.73,34,8,34,0.67
2013-3-6,42,36,32,28,25,19,77,63,55,30.29,30.08,24,6,24,0.00
2013-3-7,48,39,29,33,29,24,83,69,52,30.36,30.28,14,1,14,0.00
2013-3-8,60,43,28,37,28,21,91,62,24,30.38,30.23,6,0,6,0.00
2013-3-9,68,52,38,36,33,28,90,52,26,30.25,30.08,20,1,20,0.00
2013-3-10,73,62,51,50,40,33,57,45,30,30.09,29.87,32,4,32,0.00
2013-3-11,66,48,39,53,43,31,100,82,50,30.00,29.82,26,3,26,1.53
2013-3-12,54,43,34,34,30,26,84,62,39,30.18,30.00,14,2,14,0.00
2013-3-13,49,42,34,31,25,18,82,54,29,30.39,30.17,24,4,24,0.00
2013-3-14,52,41,28,30,22,16,73,49,26,30.45,30.24,12,1,12,0.00
2013-3-15,75,59,36,45,37,24,74,46,30,30.26,29.95,24,4,24,0.00
2013-3-16,75,64,55,48,44,38,74,49,30,29.98,29.86,24,6,24,0.00
2013-3-17,71,61,54,54,49,44,87,66,40,29.98,29.84,26,4,26,0.00
2013-3-18,63,58,49,62,55,44,100,90,75,29.97,29.75,26,5,26,0.89
2013-3-19,59,51,42,44,34,22,100,57,28,30.17,29.94,14,2,14,0.00
2013-3-20,55,46,40,29,23,15,62,41,26,30.19,30.01,22,3,22,0.00
2013-3-21,45,36,26,29,18,11,76,48,28,30.12,29.96,20,2,20,0.00
2013-3-22,47,42,37,38,33,22,91,71,53,30.04,29.95,10,0,10,0.03
2013-3-23,53,48,43,51,47,36,100,97,81,29.99,29.65,10,0,10,1.33
2013-3-24,59,49,38,55,44,26,100,82,59,29.84,29.52,26,5,26,0.33
2013-3-25,38,35,32,26,23,20,72,63,51,30.17,29.83,24,6,24,0.00
2013-3-26,39,36,31,27,25,23,80,66,54,30.36,30.16,20,4,20,0.00
2013-3-27,51,40,27,32,27,24,92,63,37,30.42,30.29,16,2,16,0.00
2013-3-28,60,46,32,38,31,26,92,62,28,30.39,30.27,14,0,14,0.00
2013-3-29,68,52,37,45,37,30,95,62,28,30.30,30.15,18,2,18,0.00
2013-3-30,85,62,53,55,52,42,100,70,1,30.19,29.98,10,1,11,0.77
2013-3-31,85,66,-2,59,56,54,100,56,1,29.98,29.88,22,1,22,0.02
2013-4-1,67,56,47,54,47,38,100,54,1,30.11,29.92,10,1,10,0.00
2013-4-2,54,47,41,40,30,25,72,33,1,30.25,30.10,12,1,12,0.00
2013-4-3,53,46,41,46,33,25,98,44,1,30.23,30.12,14,0,14,0.26
2013-4-4,44,43,42,44,43,42,100,70,1,30.15,29.98,6,0,6,0.64
2013-4-5,64,51,42,46,41,32,100,52,1,30.12,30.01,12,1,12,0.00
2013-4-6,74,62,42,43,39,34,99,37,1,30.12,30.02,12,1,12,0.00
2013-4-7,73,60,47,50,46,39,87,45,1,30.14,30.00,22,2,22,0.00
2013-4-8,78,65,52,57,54,48,97,52,1,30.09,29.97,26,2,26,0.00
2013-4-9,82,69,56,62,57,54,97,58,1,30.14,29.99,20,2,20,0.00
2013-4-10,86,74,61,59,56,52,82,43,1,30.06,29.84,22,2,22,0.00
2013-4-11,74,65,51,66,60,51,100,64,1,29.86,29.58,32,3,32,1.01
2013-4-12,64,52,43,51,42,36,100,53,1,30.00,29.73,12,1,12,0.00
2013-4-13,70,56,43,50,44,38,100,52,1,30.11,29.99,10,0,10,0.00
2013-4-14,62,56,50,53,49,41,97,53,1,30.02,29.86,22,1,22,0.00
2013-4-15,78,65,51,61,57,51,100,51,1,30.05,29.90,26,2,26,0.00
2013-4-16,82,72,63,67,63,59,91,49,1,30.16,30.05,16,1,17,0.00
2013-4-17,86,76,65,67,64,62,95,45,1,30.15,30.00,16,1,16,0.00
2013-4-18,82,73,65,65,62,57,93,44,1,30.02,29.68,28,4,28,0.00
2013-4-19,74,49,42,67,41,33,100,52,1,30.17,29.67,24,2,24,1.56
2013-4-20,62,49,35,41,35,29,100,43,1,30.28,30.16,8,0,9,0.00
2013-4-21,70,58,46,47,40,34,81,37,1,30.35,30.21,12,0,12,0.00
2013-4-22,73,61,52,52,46,41,82,39,1,30.28,30.10,10,0,10,0.00
2013-4-23,75,64,54,55,50,43,81,43,1,30.17,30.02,22,1,22,0.00
2013-4-24,64,56,46,59,50,38,100,55,1,30.28,29.97,18,3,18,0.42
2013-4-25,64,52,43,44,37,30,93,42,1,30.39,30.25,10,1,10,0.00
2013-4-26,74,56,42,51,44,37,100,48,1,30.39,30.23,12,0,12,0.03
2013-4-27,70,62,53,65,57,50,100,62,1,30.29,29.99,12,0,12,0.19
2013-4-28,66,60,56,65,60,56,100,75,1,30.02,29.94,16,2,16,1.44
2013-4-29,71,63,54,59,56,53,100,60,1,30.04,29.94,6,0,6,0.00
2013-4-30,80,65,49,61,54,49,100,53,1,30.04,29.95,8,0,8,0.00
2013-5-1,76,68,63,60,58,53,88,53,1,30.14,30.03,12,0,12,0.00
2013-5-2,68,64,60,60,57,53,88,58,1,30.15,30.06,12,0,12,0.00
2013-5-3,74,62,43,58,54,43,100,52,1,30.08,29.86,14,1,17,1.03
2013-5-4,53,45,40,49,43,40,100,66,1,30.01,29.91,10,0,10,1.53
2013-5-5,55,48,43,52,46,43,100,65,1,29.93,29.84,6,0,10,0.33
2013-5-6,55,51,47,54,50,47,100,67,1,29.94,29.82,12,0,12,0.72
2013-5-7,68,55,43,55,50,43,100,57,1,30.02,29.92,10,0,10,0.00
2013-5-8,77,63,50,61,56,50,100,54,1,30.09,30.00,12,0,12,0.00
2013-5-9,80,68,54,63,58,54,100,49,1,30.12,30.01,16,1,16,0.00
2013-5-10,67,62,58,62,59,58,100,61,1,30.06,29.98,14,1,18,0.39
2013-5-12,60,56,53,39,37,34,55,34,1,30.18,30.12,2,0,7,0.00
2013-5-13,69,57,42,49,41,31,99,44,1,30.29,30.16,10,0,10,0.00
2013-5-14,82,67,49,58,53,47,98,50,1,30.21,30.07,24,2,24,0.00
2013-5-15,84,71,56,58,54,48,92,45,1,30.17,30.01,16,1,16,0.00
2013-5-16,67,64,63,59,58,57,82,53,1,30.04,30.01,0,0,2,0.00
2013-5-17,71,66,64,69,65,58,100,86,1,30.07,29.97,0,0,6,0.80
2013-5-18,80,71,64,71,68,64,100,62,1,30.04,29.97,14,1,14,0.00
2013-5-19,82,74,65,72,68,61,100,58,1,30.06,29.98,14,2,14,0.00
2013-5-20,85,73,63,70,66,61,99,54,1,30.08,29.97,14,1,14,0.00
2013-5-21,87,77,66,71,67,63,100,50,1,30.01,29.85,16,1,16,0.00
2013-5-22,80,71,65,67,64,61,100,52,1,29.95,29.86,18,2,18,0.06
2013-5-23,80,73,62,66,60,56,100,43,1,30.08,29.92,14,1,14,0.00
2013-5-24,73,64,57,57,51,44,90,44,1,30.27,30.06,12,1,12,0.00
2013-5-25,78,64,49,55,48,23,100,43,1,30.33,30.18,8,0,8,0.00
2013-5-26,85,70,53,59,54,47,100,49,1,30.24,30.14,14,0,14,0.00
2013-5-27,84,72,59,63,60,57,96,53,1,30.18,30.06,22,1,22,0.00
2013-5-28,86,75,66,64,60,55,80,49,1,30.15,30.04,24,2,24,0.00
2013-5-29,88,78,70,67,63,58,77,47,1,30.16,30.04,12,1,12,0.00
2013-5-30,84,77,70,69,66,63,81,52,1,30.15,30.03,20,1,20,0.00
2013-5-31,84,77,72,70,67,65,81,53,1,30.12,30.00,18,1,18,0.00
2013-6-1,82,74,68,76,68,65,100,61,1,30.05,29.93,24,2,24,0.57
2013-6-2,79,72,68,70,67,63,100,60,1,29.98,29.90,10,0,10,0.00
2013-6-3,80,72,64,66,62,58,93,50,1,30.00,29.91,10,0,10,0.00
2013-6-4,85,72,61,66,62,58,95,48,1,30.04,29.95,2,0,5,0.00
2013-6-5,80,70,65,71,67,65,100,61,1,30.00,29.89,12,0,12,0.74
2013-6-6,81,72,63,71,67,63,100,58,1,29.90,29.75,12,0,12,0.01
2013-6-7,77,70,64,69,67,64,100,58,1,29.90,29.74,6,0,6,0.12
2013-6-8,80,71,62,69,64,58,100,53,1,30.05,29.89,8,0,10,0.00
2013-6-9,85,73,67,73,69,65,100,62,1,30.05,29.91,16,1,16,0.12
2013-6-10,85,75,64,70,67,61,100,56,1,30.00,29.91,22,2,22,0.74
2013-6-11,90,80,70,74,71,68,97,58,1,30.05,29.97,12,0,12,0.00
2013-6-12,92,84,75,76,72,66,93,55,1,30.08,29.97,12,0,12,0.00
2013-6-13,90,79,72,77,72,65,100,62,1,29.99,29.82,26,1,26,0.05
2013-6-14,82,74,65,66,60,54,88,50,1,30.03,29.93,12,0,12,0.01
2013-6-15,88,75,61,67,63,59,100,51,1,30.10,30.01,16,1,16,0.00
2013-6-16,87,77,67,73,68,64,94,54,1,30.09,29.99,14,1,14,0.00
2013-6-17,87,74,69,73,70,66,100,61,1,30.03,29.92,50,0,50,0.55
2013-6-18,79,73,68,74,68,64,100,56,1,29.97,29.88,14,1,14,0.23
2013-6-19,87,76,65,71,67,63,100,52,1,30.06,29.96,6,0,6,0.00
2013-6-20,89,78,68,71,68,62,100,49,1,30.19,30.06,4,0,7,0.00
2013-6-21,88,77,66,69,67,63,100,49,1,30.23,30.12,12,0,12,0.00
2013-6-22,88,77,68,69,66,60,98,48,1,30.22,30.07,6,0,7,0.00
2013-6-23,89,78,66,71,67,62,93,46,1,30.17,30.07,12,0,12,0.00
2013-6-24,90,80,70,73,71,68,97,53,1,30.20,30.08,14,0,14,0.00
2013-6-25,89,78,72,74,72,70,100,61,1,30.15,30.01,14,1,14,0.03
2013-6-26,90,80,72,74,71,68,97,55,1,30.06,29.91,24,2,24,0.00
2013-6-27,92,80,67,77,71,67,100,60,1,29.99,29.84,10,0,14,0.18
2013-6-28,85,78,73,73,71,66,100,64,1,29.88,29.72,12,0,12,0.00
2013-6-29,87,78,69,73,64,55,100,52,1,29.76,29.68,12,0,12,0.00
2013-6-30,84,73,63,67,63,58,100,57,1,29.83,29.72,10,0,11,0.08
2013-7-1,81,71,62,70,64,61,100,59,1,29.92,29.79,4,0,10,0.00
2013-7-2,82,72,63,66,64,61,100,53,1,30.05,29.91,8,0,8,0.00
2013-7-3,83,73,67,70,68,65,100,58,1,30.12,30.03,2,0,6,0.01
2013-7-4,72,68,65,70,68,65,100,66,1,30.11,30.03,6,0,6,5.50
2013-7-5,75,71,67,73,71,67,100,68,1,30.13,30.04,12,0,12,0.27
2013-7-6,73,70,68,72,70,68,100,64,1,30.13,30.06,2,0,5,0.28
2013-7-7,86,75,69,74,71,69,100,57,1,30.15,30.08,12,0,12,0.23
2013-7-8,85,77,70,75,73,70,100,57,1,30.18,30.09,4,0,7,0.00
2013-7-9,88,80,73,79,74,70,100,57,1,30.19,30.06,6,0,8,0.63
2013-7-10,90,80,71,77,73,68,100,55,1,30.09,29.93,12,0,12,0.54
2013-7-11,86,75,69,76,72,69,100,64,1,30.04,29.88,6,0,6,0.41
2013-7-12,84,76,68,71,69,63,97,61,1,29.98,29.93,12,0,12,0.00
2013-7-13,87,78,64,72,68,60,91,56,1,30.05,29.97,10,0,10,0.00
2013-7-14,87,77,71,74,71,69,97,62,1,30.15,30.03,6,0,8,0.02
2013-7-15,87,78,72,74,71,68,100,55,1,30.25,30.14,10,0,10,0.15
2013-7-16,89,77,71,74,72,70,100,62,1,30.31,30.25,14,0,14,0.00
2013-7-17,92,81,71,76,73,69,100,57,1,30.31,30.16,4,0,6,0.00
2013-7-18,91,80,73,75,71,65,91,51,1,30.20,30.05,4,0,6,0.00
2013-7-19,90,80,71,74,71,67,100,51,1,30.12,29.97,12,0,12,0.00
2013-7-20,88,78,71,77,73,68,100,58,1,30.04,29.91,20,0,20,0.07
2013-7-21,86,76,70,76,72,68,100,58,1,30.05,29.94,14,0,14,0.10
2013-7-22,77,73,69,74,70,68,100,66,1,29.99,29.92,12,0,12,0.01
2013-7-23,78,73,69,75,71,69,100,65,1,29.97,29.88,12,1,17,0.09
2013-7-24,83,77,69,73,72,69,100,58,1,29.94,29.86,4,0,4,0.00
2013-7-25,83,75,67,70,64,62,87,46,1,30.04,29.93,12,0,12,0.00
2013-7-26,85,75,63,68,65,63,100,51,1,30.08,29.98,6,0,6,0.00
2013-7-27,84,75,70,71,67,59,93,55,1,29.99,29.91,14,0,14,0.00
2013-7-28,81,74,68,69,66,63,96,60,1,30.04,29.94,4,0,6,0.00
2013-8-2,82,74,70,70,68,65,97,68,1,30.04,30.00,0,0,0,0.01
2013-8-3,82,75,68,74,71,66,99,59,1,30.08,30.01,14,0,14,0.00
2013-8-4,86,77,70,74,71,66,100,58,1,30.10,30.03,4,0,7,0.00
2013-8-5,82,74,68,70,67,63,89,56,1,30.09,29.99,2,0,3,0.00
2013-8-6,82,75,71,78,73,68,100,66,1,30.02,29.95,12,0,12,0.16
2013-8-7,88,75,70,77,73,70,100,62,1,30.01,29.93,12,0,12,0.01
2013-8-8,90,76,69,78,72,69,100,64,1,30.01,29.94,12,0,12,0.02
2013-8-9,89,77,71,76,74,71,100,61,1,30.08,29.99,16,1,16,0.01
2013-8-10,82,74,72,78,73,72,100,66,1,30.14,30.06,8,0,8,0.01
2013-8-11,89,77,70,77,72,69,100,68,1,30.16,30.07,14,0,14,0.01
2013-8-12,89,78,71,76,73,71,100,62,1,30.12,29.98,22,1,22,0.01
2013-8-13,84,78,72,73,71,69,98,62,1,30.01,29.92,12,0,12,0.01
2013-8-14,81,72,65,70,65,59,94,63,1,30.06,29.96,8,0,8,0.00
2013-8-15,81,68,59,69,62,58,96,65,1,30.06,30.00,4,0,6,0.01
2013-8-16,73,68,65,65,62,60,88,82,74,30.10,30.03,0,0,5,0.00
2013-8-17,69,67,65,65,64,63,97,89,84,30.13,30.06,0,0,3,0.01
2013-8-18,76,69,64,70,67,64,100,80,1,30.17,30.09,2,0,8,0.00
2013-8-19,82,72,66,74,70,66,100,64,1,30.13,30.03,4,0,4,0.01
2013-8-20,88,76,68,74,72,68,100,64,1,30.15,30.06,8,0,10,0.00
2013-8-21,84,75,71,75,72,68,100,68,1,30.19,30.10,30,0,30,0.00
2013-8-22,88,76,68,76,72,68,100,65,1,30.17,30.05,10,0,10,0.00
2013-8-23,89,78,70,75,72,69,100,67,1,30.11,30.00,2,0,3,0.01
2013-8-24,90,79,70,73,71,68,100,62,1,30.21,30.06,2,0,5,0.00
2013-8-25,86,76,68,70,66,63,92,55,1,30.32,30.20,6,0,7,0.00
2013-8-26,85,73,62,67,63,60,100,51,1,30.31,30.17,14,0,14,0.00
2013-8-27,86,74,63,70,66,63,100,56,1,30.19,30.06,6,0,6,0.00
2013-8-28,88,76,66,72,69,66,100,58,1,30.11,30.02,2,0,3,0.00
2013-8-29,89,79,68,72,70,68,100,53,1,30.08,29.98,6,0,6,0.00
2013-8-30,92,81,71,76,73,70,100,54,1,30.04,29.92,2,0,3,0.00
2013-8-31,93,80,72,78,74,64,100,59,1,29.97,29.87,22,0,22,0.00
2013-9-1,89,79,73,74,71,66,100,59,1,29.92,29.87,8,0,8,0.00
2013-9-2,82,74,67,74,71,67,100,58,1,29.99,29.87,24,1,24,0.00
2013-9-3,86,77,71,74,69,63,100,51,1,30.03,29.92,10,0,10,0.00
2013-9-4,86,74,65,70,65,61,100,49,1,30.14,30.01,2,0,2,0.00
2013-9-5,86,72,62,68,65,62,100,56,1,30.18,30.10,2,0,3,0.00
2013-9-6,88,74,63,70,66,58,100,51,1,30.16,30.06,2,0,3,0.00
2013-9-7,89,76,66,73,69,66,100,55,1,30.12,30.01,6,0,7,0.00
2013-9-8,90,77,66,73,70,63,100,55,1,30.04,29.95,4,0,6,0.00
2013-9-9,90,79,70,74,72,68,100,53,1,30.09,30.00,8,0,10,0.00
2013-9-10,91,79,72,74,72,69,100,60,1,30.19,30.09,14,0,14,0.00
2013-9-11,90,78,69,72,69,66,100,59,1,30.22,30.10,8,0,8,0.00
2013-9-12,88,76,67,72,68,65,100,62,1,30.11,29.93,20,0,20,0.00
2013-9-13,81,72,62,70,62,52,100,58,1,29.99,29.91,6,0,6,0.00
2013-9-14,76,63,54,56,54,51,91,49,1,30.06,29.99,4,0,4,0.00
2013-9-15,83,68,57,65,60,56,100,79,40,30.13,30.06,2,0,7,0.00
2013-9-16,87,74,60,66,61,57,100,63,1,30.17,30.09,2,0,3,0.00
2013-9-17,87,79,71,70,67,64,83,54,1,30.18,30.07,6,0,8,0.00
2013-9-18,82,72,65,69,64,61,88,57,1,30.20,30.09,12,0,12,0.00
2013-9-19,85,74,65,68,65,63,96,51,1,30.17,30.05,12,0,12,0.00
2013-9-20,87,74,65,71,66,63,100,54,1,30.07,29.86,14,1,14,0.00
2013-9-21,72,67,61,71,64,55,100,59,1,29.88,29.76,12,0,12,0.00
2013-9-22,77,65,54,57,55,51,95,48,1,29.92,29.86,4,0,6,0.00
2013-9-23,83,67,54,64,59,54,100,53,1,29.99,29.91,4,0,4,0.00
2013-9-24,72,69,65,68,66,61,99,66,1,29.99,29.86,6,0,6,0.00
2013-9-25,76,69,65,68,66,64,100,60,1,29.89,29.81,6,0,6,0.00
2013-9-26,81,70,63,66,64,62,100,56,1,30.02,29.88,4,0,5,0.00
2013-9-27,82,69,60,66,62,58,100,56,1,30.13,30.01,6,0,6,0.00
2013-9-28,79,67,58,60,58,55,100,57,1,30.21,30.08,10,0,10,0.00
2013-9-29,76,66,58,60,58,54,93,58,1,30.13,30.01,10,0,10,0.00
2013-9-30,75,66,62,64,61,57,99,63,1,30.09,29.99,10,0,10,0.00
2013-10-1,82,69,58,69,64,58,100,67,1,30.14,30.03,14,0,14,0.00
2013-10-2,84,71,62,70,66,62,100,64,1,30.16,30.06,12,0,12,0.00
2013-10-3,85,73,63,69,66,63,100,59,1,30.12,30.03,16,0,16,0.00
2013-10-4,84,73,64,69,67,64,100,60,1,30.14,30.06,10,0,10,0.00
2013-10-5,86,75,65,70,67,65,100,53,1,30.10,29.97,16,1,16,0.00
2013-10-6,77,66,55,71,62,54,99,60,1,29.97,29.84,12,1,12,0.00
2013-10-7,68,59,51,55,50,44,99,51,1,30.09,29.94,10,0,10,0.00
2013-10-8,76,63,50,60,53,46,88,46,1,30.11,30.04,2,0,5,0.00
2013-10-9,76,66,60,62,57,50,98,51,1,30.19,30.09,10,0,12,0.00
2013-10-10,78,66,60,64,61,59,100,61,1,30.16,30.04,4,0,6,0.00
2013-10-11,80,66,56,63,58,52,100,57,1,30.11,30.01,2,0,3,0.00
2013-10-12,80,66,54,64,60,54,100,56,1,30.13,30.03,6,0,6,0.00
2013-10-13,83,68,58,63,60,57,100,57,1,30.23,30.12,2,0,3,0.00
2013-10-14,81,64,-2,64,60,58,100,74,1,30.23,30.09,0,0,6,0.00
2013-10-15,75,67,61,61,60,58,94,58,1,30.13,30.01,10,0,10,0.00
2013-10-16,67,64,62,65,62,59,100,68,1,30.06,29.93,8,0,8,0.00
2013-10-17,65,60,51,64,59,51,100,66,1,30.02,29.90,6,0,6,0.00
2013-10-18,67,55,49,56,52,49,100,60,1,30.10,29.97,2,0,3,0.00
2013-10-19,68,56,46,56,51,44,100,55,1,30.07,29.94,14,1,14,0.00
2013-10-20,66,50,40,46,42,30,100,50,1,30.12,30.03,6,0,6,0.00
2013-10-21,70,54,40,52,46,40,100,52,1,30.12,30.00,12,0,12,0.00
2013-10-22,65,55,49,54,51,48,100,59,1,30.04,29.91,2,0,5,0.00
2013-10-23,56,49,41,48,40,34,95,48,1,30.14,29.91,14,0,14,0.00
2013-10-24,62,48,38,45,41,35,100,53,1,30.34,30.12,14,0,14,0.00
2013-10-25,52,42,34,35,30,24,97,46,1,30.49,30.32,10,0,10,0.00
2013-10-26,62,46,30,44,35,27,100,56,1,30.37,30.15,12,0,12,0.00
2013-10-27,58,55,48,54,49,42,84,59,1,30.18,30.11,4,0,6,0.00
2013-10-28,70,59,54,58,56,51,100,68,1,30.26,30.12,6,0,10,0.00
2013-10-29,76,62,52,62,57,52,100,63,1,30.31,30.19,10,0,11,0.00
2013-10-30,78,66,56,60,57,53,100,54,1,30.28,30.09,20,0,20,0.00
2013-10-31,73,67,62,67,60,55,100,55,1,30.11,29.72,34,5,34,0.00
2013-11-1,70,59,49,64,52,42,100,52,1,29.88,29.73,12,0,12,0.41
2013-11-2,64,53,45,48,43,35,100,48,1,30.16,29.87,24,1,24,0.00
2013-11-3,62,48,39,42,37,29,99,49,1,30.32,30.15,6,0,6,0.00
2013-11-4,65,52,39,41,39,35,100,44,1,30.38,30.26,14,0,14,0.00
2013-11-5,62,55,49,46,40,36,75,38,1,30.40,30.26,8,0,11,0.00
2013-11-6,75,63,50,63,54,40,100,51,1,30.26,30.06,24,1,24,0.44
2013-11-7,61,49,43,60,39,29,100,48,1,30.33,30.07,12,1,16,0.09
2013-11-8,50,38,32,34,31,29,97,54,1,30.41,30.32,2,0,3,0.00
2013-11-12,39,35,31,18,16,15,52,37,1,30.58,30.48,6,0,11,0.00
2013-11-13,48,34,26,26,19,13,92,42,1,30.67,30.47,6,0,6,0.00
2013-11-14,58,39,23,28,22,14,97,42,1,30.47,30.23,10,0,10,0.00
2013-11-15,53,47,38,51,42,27,100,57,1,30.23,30.09,2,0,2,0.27
2013-11-16,64,57,47,59,55,47,100,62,1,30.15,30.03,10,0,11,0.00
2013-11-17,69,64,58,68,63,54,100,65,1,30.03,29.84,14,2,17,0.23
2013-11-18,65,56,45,56,42,32,95,41,1,30.19,29.98,14,1,14,0.01
2013-11-19,52,44,37,32,28,24,72,37,1,30.25,30.15,12,0,12,0.00
2013-11-20,62,49,31,39,34,28,92,37,1,30.25,30.15,10,0,12,0.00
2013-11-21,64,55,46,53,47,39,88,49,1,30.31,30.22,14,0,14,0.00
2013-11-22,60,56,48,60,54,47,100,65,1,30.31,30.20,16,0,16,0.03
2013-11-23,49,43,29,47,35,19,97,57,1,30.47,30.27,18,3,18,0.01
2013-11-24,39,30,22,20,15,10,72,43,1,30.60,30.44,26,2,26,0.00
2013-11-25,40,34,27,37,22,13,100,51,1,30.44,30.12,6,0,6,0.64
2013-11-26,43,38,35,43,38,30,100,76,1,30.12,29.83,14,2,19,1.54
2013-11-27,35,30,24,28,17,12,79,48,1,30.38,29.94,16,3,17,0.00
2013-11-28,42,29,19,24,16,11,88,48,1,30.50,30.37,4,0,4,0.00
2013-11-29,53,35,22,30,25,21,99,55,1,30.58,30.46,4,0,4,0.00
2013-11-30,54,37,27,30,28,24,100,57,1,30.47,30.28,4,0,6,0.00
2013-12-1,57,46,32,41,35,29,96,47,1,30.27,29.99,12,0,12,0.00
2013-12-2,56,50,46,52,49,40,100,69,1,29.99,29.78,10,0,10,0.22
2013-12-3,61,53,46,58,52,46,100,65,1,29.83,29.77,10,0,10,0.00
2013-12-4,72,65,56,65,61,56,100,61,1,29.94,29.82,24,3,24,0.01
2013-12-5,76,64,41,67,60,41,97,58,1,30.03,29.89,22,3,22,0.03
2013-12-6,41,38,34,41,37,32,100,68,1,30.30,29.99,18,2,18,1.22
2013-12-7,34,32,31,33,30,29,96,62,1,30.46,30.29,16,3,16,0.00
2013-12-8,45,39,34,45,39,31,100,67,1,30.29,30.08,4,0,5,1.58
2013-12-9,45,38,33,45,38,33,100,68,1,30.22,30.08,14,1,14,0.49
2013-12-10,41,33,27,33,29,25,100,59,1,30.40,30.09,16,1,16,0.12
2013-12-11,47,35,24,34,26,20,100,59,1,30.49,30.39,10,0,10,0.00
2013-12-12,40,30,22,26,19,13,89,50,1,30.59,30.41,12,1,12,0.00
2013-12-13,48,35,22,30,25,21,97,52,1,30.41,30.08,4,0,4,0.00
2013-12-14,52,45,37,52,43,28,100,65,1,30.08,29.83,22,2,22,0.76
2013-12-15,37,33,28,33,29,26,93,60,1,30.28,30.03,16,1,16,0.00
2013-12-16,57,40,26,35,29,26,99,49,1,30.28,30.16,16,2,18,0.00
2013-12-17,62,46,33,38,33,29,87,41,1,30.30,30.11,14,2,17,0.00
2013-12-18,53,39,27,29,26,19,93,44,1,30.40,30.23,6,0,6,0.00
2013-12-19,62,47,30,40,32,27,96,37,1,30.29,30.10,20,2,20,0.00
2013-12-20,65,60,53,59,51,30,87,48,1,30.12,29.98,22,5,22,0.00
2013-12-21,72,67,62,68,63,58,99,58,1,29.98,29.73,50,6,50,0.17
2013-12-22,69,56,53,64,54,52,100,63,1,30.08,29.77,28,2,28,1.24
2013-12-23,53,38,30,52,33,25,99,58,1,30.45,30.08,20,2,20,0.01
2013-12-24,35,29,24,25,19,14,85,53,1,30.56,30.42,26,1,26,0.00
2013-12-25,48,32,20,28,22,14,93,55,1,30.45,30.32,10,0,10,0.00
2013-12-26,49,35,25,34,28,24,100,59,1,30.42,30.33,4,0,4,0.00
2013-12-27,54,36,25,32,26,21,99,53,1,30.49,30.36,6,0,6,0.00
2013-12-28,41,38,32,40,36,29,100,70,1,30.38,29.94,8,0,8,0.72
2013-12-29,53,44,40,44,41,39,100,62,1,30.11,29.92,6,0,7,0.24
2013-12-30,46,36,33,41,32,29,92,57,1,30.30,30.10,10,0,10,0.00
2013-12-31,41,34,30,32,28,25,96,55,1,30.49,30.30,8,0,8,0.00
2014-1-1,52,40,27,41,32,27,100,54,1,30.35,30.03,16,1,16,0.00
2014-1-2,47,36,22,47,31,11,100,56,1,30.35,29.88,24,4,24,0.25